Location: Bruch
(44.2051°N, 0.4120°E)
Time: 04:51:41
(UTC+00:00)

Envisat - Pass Details

Date: 29 November 2020
Orbit: 764 x 766 km, 98.1° (Epoch: 24 January)

Event Time Altitude Azimuth Distance (km) Brightness Sun altitude
Rises 06:32:13 0° 7° (N) 3,245 6.1 -7.2°
Reaches altitude 10° 06:34:36 10° 2° (N) 2,314 5.3 -6.8°
Maximum altitude 06:39:27 46° 290° (WNW) 1,028 3.3 -6.0°
Drops below altitude 10° 06:44:16 10° 218° (SW) 2,298 5.4 -5.2°
Sets 06:46:38 0° 213° (SSW) 3,219 6.2 -4.8°
